Location: Coupvray
(48.8929°N, 2.7967°E)
Time: 21:20:20
(UTC+00:00)

Cosmos 724 - Pass Details

Date: 24 October 2020
Orbit: 851 x 943 km, 65.6° (Epoch: 01 December)

Event Time Altitude Azimuth Distance (km) Brightness Sun altitude
Exits shadow 04:58:13 - 321° (NW) 2,892 6.6 -14.6°
Reaches altitude 10° 04:59:28 10° 330° (NNW) 2,598 6.4 -14.4°
Maximum altitude 05:03:18 17° 9° (N) 2,155 6.4 -13.8°
Drops below altitude 10° 05:07:11 10° 49° (NE) 2,635 7.5 -13.2°
Sets 05:10:45 0° 69° (ENE) 3,592 8.8 -12.6°
